Location: Austin
(30.3000°N, 97.7500°W)
Time: 05:06:49
(UTC-06:00)

Cosmos 2026 Rocket - Pass Details

Date: 03 March 2026
Orbit: 937 x 1000 km, 82.9° (Epoch: 5 March)

Event Time Altitude Azimuth Distance (km) Brightness Sun altitude
Rises 19:11:54 0° 161° (SSE) 3,693 6.9 -9.5°
Reaches altitude 10° 19:14:38 10° 153° (SSE) 2,740 6.1 -10.1°
Maximum altitude 19:20:16 36° 89° (E) 1,507 4.5 -11.3°
Drops below altitude 10° 19:25:50 10° 25° (NNE) 2,715 6.1 -12.5°
Sets 19:28:31 0° 17° (NNE) 3,655 6.8 -13.1°
